Погода Докшицы

Погода Докшицы : погода сейчас, прогноз погоды и архив. Всё, что Вы хотите узнать о погоде Докшицы!

Поиск расширенной информации на нашем сайте:

Другие новости

Новости СМИ2

Главная страница сайта

Новости сайта

03.07.2017

Напоминаем, что на нашем специализированном сайте Метеоцентр.Азия вы можете получить высокодетализированные автоматические прогнозы погоды по пунктам России, СНГ и мира в авиационном формате (включающие направление и скорость ветра, видимость, явления погоды, количество и форму облачности, нижнюю и верхнюю границу облачности).

Рекомендуем: Изучение английского на www.newmetod.ru

Погода Докшицы - сегодня

Время (UTC), дата Ветер
(°,м/с) 
Видим.   Явления Облачность Т
(°С)
Тd
(°С)
f(%) Тe
(°С)
Pmin
(гПа)
dP
(гПа)
Po
(мм)
O2
(г/м3)
Тmin Tmax R s Состояние
почвы
06 14.09.17 210 (ЮЗ) 7-10{15}  20000 м  {ливн. осадки}  6/6 800 м 
[Sc]
+13.2 +9.9 80 +14  998.5  0.7  732  279  +10.9    0.3     
12 14.09.17 230 (ЮЗ) 7-13{16}  20000 м    9/9 750 м 
[Sc]
+17.4 +8.9 57 +17  999.8  0.7  733  276           
18 14.09.17 200 (Ю) 4{14}  20000 м  в посл. час ливневой дождь  9/9 800 м кучево-дожд. 
[Cb calv]
+14 +12.6 91 +19  999.7  -0.4  733  278    +17.8  0.0     
06 15.09.17 220 (ЮЗ) 6{12}  4000 м  слаб. ливневой дождь  10/10 300 м кучево-дожд. 
[Cb calv]
+10.4 +9.6 95 +10  1000.3  -0.2  733  283  +10.1       
09 15.09.17 240 (ЮЗ) 7-12{14}  20000 м  {ливн. осадки}  9/9 800 м 
[Sc]
+12.1 +9.8 86 +12  1001.6  1.4  734  281      0.7     
12 15.09.17 240 (ЮЗ) 7-12{17}  20000 м  {ливн. осадки}  9/9 800 м 
[Sc]
+12.2 +8.8 80 +11  1003.4  1.8  735  282      0.1     
15 15.09.17 220 (ЮЗ) 7-12{15}  20000 м  {ливн. осадки}  9/9 800 м 
[Sc]
+12 +9.4 84 +12  1005.2  1.8  737  283         
18 15.09.17 250 (З) 6{12}  20000 м  {ливн. осадки}  8/8 800 м 
[Sc]
+11.7 +8.5 81 +10  1007.9  2.5  739  284    +13     
06 16.09.17 200 (Ю) 4{11}  8000 м  дымка  9/9 240 м 
[Sc]
+9.8 +9.2 96 +9  1016.4  8.1  745  288  +8.2         
09 16.09.17 220 (ЮЗ) 20000 м    8/0 верхняя 
[Ci fib]
+14.1 +10.1 77 +15  1017.5  1.5  746  284           
12 16.09.17 230 (ЮЗ) 20000 м    8/5 600 м верхняя 
[Sc|Ci fib]
+16.4 +9.6 64 +17  1017.7  0.4  746  282           
15 16.09.17 210 (ЮЗ) 20000 м    6/0 средняя 
[Ac und]
+15.7 +9.3 66 +16  1018  0.2  746  283           
18 16.09.17 180 (Ю) 20000 м    8/0 средняя 
[Ac und]
+11.2 +9.9 92 +12  1018.8  0.5  747  287    +16.8       
06 17.09.17 120 (ЮВ) 20000 м    8/0 средняя 
[Ac und]
+12 +10 88 +13  1016.5  -2.3  745  286  +9.4         
09 17.09.17 140 (ЮВ) 20000 м    9/9 840 м 
[Sc]
+14.9 +11.1 78 +18  1014.5  -1.7  744  282           
12 17.09.17 100 (В) 20000 м    9/9 800 м 
[Sc]
+15 +12.3 84 +20  1013  -1.4  743  281           
18 17.09.17 090 (В) 12000 м  в посл. час ливневой дождь  9/9 800 м кучево-дожд. 
[Cb calv]
+13.3 +13 98 +20  1011.2  -1.3  741  282    +15.1     
06 18.09.17 190 (Ю) 6-10{17}  20000 м  {гроза, ливн. осадки}  9/9 360 м 
[Sc]
+15.2 +14 93 +23  998.2  -12.5  732  276  +13.3    13     
12 18.09.17 180 (Ю) 8-13{15}  5000 м  слаб. ливневой дождь  10/10 330 м кучево-дожд. 
[Cb calv]
+11.3 +10.4 94 +12  997.2  -0.6  731  281         
15 18.09.17 190 (Ю) 9-14{16}  20000 м  в посл. час ливневой дождь  9/9 360 м 
[Sc]
+11.7 +10.8 94 +13  997  -0.2  731  280         
18 18.09.17 210 (ЮЗ) 6-11{14}  9000 м  слаб. ливневой дождь  10/10 330 м кучево-дожд. 
[Cb calv]
+11.5 +10.7 95 +13  997.3  0.3  731  281    +15.2     
06 19.09.17 230 (ЮЗ) 5{18}  20000 м  {ливн. осадки}  8/8 800 м 
[Sc]
+10.2 +8.6 90 +9  1012.4    742  287  +8.5       
12 19.09.17 220 (ЮЗ) 5{10}  20000 м    8/8 800 м 
[Sc]
+13.4 +9.9 79 +14  1015.9  1.7  745  284           
15 19.09.17 230 (ЮЗ) 20000 м    6/5 600 м верхняя 
[Sc|Ci fib]
+14.9 +8.7 66 +15  1016.3  0.4  745  283           
18 19.09.17 200 (Ю) 20000 м    4/0 верхняя 
[Ci fib]
+9.3 +8.2 93 +9  1018  1.3  746  289    +15.5       
Время (UTC), дата Ветер
(°,м/с) 
Видим.   Явления Облачность Т
(°С)
Тd
(°С)
f(%) Тe
(°С)
Pmin
(гПа)
dP
(гПа)
Po
(мм)
O2
(г/м3)
Тmin Tmax R s Состояние
почвы

Для получения пояснительной информации подведите курсор к названию столбца.

ПОГОДА Докшицы - архив

Всё, что Вы хотите узнать о погоде Докшицы - удобно и подробно!

Выберите нужную дату (начиная с 1 января 2015* года) и нажмите кнопку "Найти".
Будут отображены архивные сводки погоды по пункту Докшицы, начиная с указанной даты.


Отображать данные в формате CSV (для использования в таблицах Excel)


Внимание! Наш архив погоды предназначен исключительно для личного некоммерческого использования в познавательных целях. Если Вам необходимы официальные справки о состоянии погоды (для производственных, юридических, коммерческих и т.п. целей), обращайтесь в органы Росгидромета.

*Примечание: данная дата относится к архиву по метеостанциям СССР (Россия, СНГ, Балтия).
Архив по метеостанциям Зарубежной Европы и Азии (кроме Китая) хранится 10 дней, по другим регионам земного шара (Китай, Африка, Америка, Австралия, Океания) - 1 день.

Докшицы - район местоположения метеостанции


Название, широта, долгота, высота метеостанции:
Докшицы 54.9°ш. 27.8°д. 193 м над ур. моря [Беларусь]

Дополнительная информация

В oтличие oт бoльшинства пoгoдных сайтoв мы публикуем пoдрoбную метеoинфoрмацию в детальнoм прoфессиoнальнoм фoрмате.

Характеристики температуры и влажнoсти вoздуха измеряются на высoте 2 м в тени вдали oт зданий и деревьев.
Скoрoсть ветра измеряется на высoте 10 м (на урoвне рoста челoвека скoрoсть ветра ниже в 1.5-2 раза). Если метеoстанция нахoдится в гoрoде или в лесу, тo скoрoсть ветра занижена на 2-4 м/с пo сравнению с oткрытым местoм. Скoрoсть ветра над акватoриями крупных рек и oзёр, а также на вершинах хoлмoв на 2-5 м/с выше, чем в oбычных услoвиях.
Атмoсфернoе давление в разных тoчках местнoсти мoжет значительнo oтличаться oт давления на метеoстанции, в зависимoсти oт услoвий рельефа (при пoдъёме на 10 м давление пoнижается примернo на 1 мм рт.ст.).